FALCON 9 DEB (52651 NORAD) Tracking and Keplerian Element Data
This shows tracking and keplerian element data for the satellite.
Feedback or suggestion? Click here.
Element | Value |
Catalog | 52651 |
Name | FALCON 9 DEB |
Epoch Orbit | 777 |
Epoch Day | 183.42275763 |
Epoch Year | 2022 |
RAAN | 190.4159 |
Inclination | 53.2022 |
Eccentricity | 0.0006992 |
Argument of Perigee | 36.0576 |
Mean Anonmoly | 324.0935 |
Mean Motion | 16.21166653 |
Decay Rate | 0.01441183 |
L1 | 1 52651U 22052BF 22183.42275763 .01441183 11847-4 66037-3 0 9994 |
L2 | 2 52651 53.2022 190.4159 0006992 36.0576 324.0935 16.21166653 7771 |
Live tracking and technical data element details for FALCON 9 DEB (NORAD 52651). FALCON 9 DEB can be tracked NOW for your location showing map with azimuth and elevation plus other details from your city location.
Track the satellite on the map from your city or location and see movement details for azimuth, elevation, latitude, longitude, range, height, and movement on the map or in text.
IsCatalogInMostPopularTable: catalog: 52651, numindb: 3
Update: records affected: 1
GetName: 52651 FALCON 9 DEB
Hit Count: updated at: Sun, 14 Aug 2022 00:59:56 GMT